Tracking 31027 objects as of 19-Jul-2025
HD Live streaming from Space Station
objects crossing your sky now

STARLINK-4542

Track STARLINK-4542 now!
10-day predictions
STARLINK-4542 is classified as:


NORAD ID: 53435
Int'l Code: 2022-097AZ
Perigee: 545.9 km
Apogee: 547.9 km
Inclination: 53.2 °
Period: 95.4 minutes
Semi major axis: 6917 km
RCS: Unknown
Launch date: August 10, 2022
Source: United States (US)
Launch site: AIR FORCE EASTERN TEST RANGE (AFETR)
Your satellite tracking list
STARLINK-3674
Track 1 satellite(s)




NASA's NSSDC Master Catalog

Two Line Element Set (TLE):
1 53435U 22097AZ  25199.37891136  .00000204  00000-0  30934-4 0  9993
2 53435  53.2177  75.7838 0001425  87.2330 272.8825 15.08841131163398
Source of the keplerian elements: AFSPC